EA1BFZ-13 Weather Reports


time (UTC)temp
C
wind
direction
speed
KPH
gust
KPH
rain 1hr
cm
rain 24hr
cm
rain mn
cm
humidity
%
barometer
mb
20260508024112 3 0 0.0 0.0 0.00 0.00 0.00 1012.0
20260508023112 3 0 0.0 0.0 0.00 0.00 0.00 1012.0
20260508022112 3 0 0.0 1.6 0.00 0.00 0.00 1012.0
20260508021112 4 0 0.0 0.0 0.00 0.00 0.00 1013.0
20260508020112 4 0 0.0 0.0 0.00 0.00 0.00 1013.0
20260508015112 5 0 0.0 1.6 0.00 0.00 0.00 1013.0
20260508014112 5 0 0.0 0.0 0.00 0.00 0.00 1013.0
20260508013112 5 0 0.0 1.6 0.00 0.00 0.00 1013.0
20260508012112 5 0 0.0 1.6 0.00 0.00 0.00 1013.0
20260508011112 5 0 1.6 1.6 0.00 0.00 0.00 1013.0
20260508010112 5 0 1.6 1.6 0.00 0.00 0.00 1013.0
20260508005112 5 0 0.0 0.0 0.00 0.00 0.00 1013.0
20260508004112 5 0 0.0 0.0 0.00 0.00 0.00 1013.0
20260508003112 5 0 0.0 0.0 0.00 0.00 0.00 1013.0
20260508002113 5 0 0.0 0.0 0.00 0.00 0.00 1013.0
20260508001113 5 0 0.0 0.0 0.00 0.00 0.00 1014.0
20260507235112 5 0 0.0 0.0 0.00 0.00 0.00 1014.0
20260507234112 5 0 0.0 0.0 0.00 0.00 0.00 1013.0
20260507233112 6 0 0.0 1.6 0.00 0.00 0.00 1013.0
20260507232112 6 0 0.0 1.6 0.00 0.00 0.00 1014.0
20260507231112 6 0 0.0 0.0 0.00 0.00 0.00 1014.0
20260507224112 6 0 0.0 0.0 0.00 0.00 0.00 1014.0
20260507223112 6 0 0.0 0.0 0.00 0.00 0.00 1013.0
20260507222112 6 0 0.0 0.0 0.00 0.00 0.00 1013.0
20260507221112 6 0 0.0 0.0 0.00 0.00 0.00 1013.0
20260507220112 7 0 0.0 0.0 0.00 0.00 0.00 1013.0
20260507215112 7 0 0.0 0.0 0.00 0.00 0.00 1013.0
20260507214112 7 0 0.0 0.0 0.00 0.00 0.00 1013.0
20260507213112 7 0 0.0 0.0 0.00 0.00 0.00 1013.0
20260507212112 7 0 0.0 1.6 0.00 0.00 0.00 1013.0
20260507211112 7 0 0.0 0.0 0.00 0.00 0.00 1013.0
20260507210112 7 0 0.0 1.6 0.00 0.00 0.00 1013.0
20260507205112 7 0 0.0 0.0 0.00 0.00 0.00 1013.0
20260507204112 7 0 0.0 0.0 0.00 0.00 0.00 1013.0
20260507203112 8 0 0.0 1.6 0.00 0.00 0.00 1013.0
20260507202112 8 0 0.0 4.8 0.00 0.00 0.00 1012.0
20260507201112 8 0 1.6 6.4 0.00 0.00 0.00 1012.0
20260507200112 8 0 0.0 6.4 0.00 0.00 0.00 1012.0
20260507195112 8 0 1.6 3.2 0.00 0.00 0.00 1012.0
20260507194112 8 0 1.6 6.4 0.00 0.00 0.00 1012.0
20260507193112 9 0 1.6 3.2 0.00 0.00 0.00 1012.0
20260507192113 9 0 1.6 3.2 0.00 0.00 0.00 1012.0
20260507191112 10 0 1.6 0.0 0.00 0.00 0.00 1012.0
20260507190112 10 0 3.2 1.6 0.00 0.00 0.00 1011.0
20260507185112 10 0 0.0 0.0 0.00 0.00 0.00 1011.0
20260507184112 11 0 1.6 3.2 0.00 0.00 0.00 1011.0
20260507183113 11 0 0.0 4.8 0.00 0.00 0.00 1011.0
20260507182112 11 0 4.8 4.8 0.00 0.00 0.00 1011.0
20260507181112 12 0 0.0 3.2 0.00 0.00 0.00 1011.0
20260507180113 12 0 1.6 1.6 0.00 0.00 0.00 1011.0
20260507175113 12 0 1.6 3.2 0.00 0.00 0.00 1011.0
20260507174113 11 0 3.2 3.2 0.00 0.00 0.00 1011.0
20260507173113 11 0 0.0 3.2 0.00 0.00 0.00 1011.0
20260507172113 11 0 1.6 3.2 0.00 0.00 0.00 1011.0
20260507170113 12 0 0.0 1.6 0.00 0.00 0.00 1011.0
20260507165113 12 0 3.2 3.2 0.00 0.00 0.00 1011.0
20260507164113 12 0 0.0 0.0 0.00 0.00 0.00 1011.0
20260507163113 13 0 4.8 3.2 0.00 0.00 0.00 1011.0
20260507162113 13 0 1.6 0.0 0.00 0.00 0.00 1011.0
20260507161113 12 0 4.8 3.2 0.00 0.00 0.00 1011.0
20260507160113 12 0 1.6 1.6 0.00 0.00 0.00 1011.0
20260507155113 12 0 0.0 1.6 0.00 0.00 0.00 1011.0
20260507154113 12 0 0.0 1.6 0.00 0.00 0.00 1011.0
20260507153113 11 0 0.0 1.6 0.00 0.00 0.00 1012.0
20260507152113 11 0 1.6 3.2 0.00 0.00 0.00 1011.0
20260507151113 11 0 0.0 1.6 0.00 0.00 0.00 1011.0
20260507150113 10 0 0.0 0.0 0.00 0.00 0.00 1011.0
20260507145113 10 0 0.0 3.2 0.00 0.00 0.00 1011.0
20260507144113 10 0 0.0 3.2 0.00 0.00 0.00 1012.0
20260507143113 10 0 4.8 11.3 0.00 0.00 0.00 1012.0
20260507141113 11 0 0.0 4.8 0.00 0.00 0.00 1011.0
20260507140113 12 0 1.6 3.2 0.00 0.00 0.00 1011.0
20260507135113 12 0 0.0 3.2 0.00 0.00 0.00 1011.0
20260507134113 12 0 0.0 3.2 0.00 0.00 0.00 1011.0
20260507133113 13 0 1.6 6.4 0.00 0.00 0.00 1011.0
20260507132113 15 0 0.0 4.8 0.00 0.00 0.00 1011.0
20260507131113 16 0 0.0 4.8 0.00 0.00 0.00 1011.0
20260507130113 17 0 1.6 3.2 0.00 0.00 0.00 1011.0
20260507125113 17 0 0.0 8.0 0.00 0.00 0.00 1011.0
20260507124113 18 0 6.4 6.4 0.00 0.00 0.00 1011.0
20260507123113 22 0 3.2 8.0 0.00 0.00 0.00 1011.0
20260507122113 23 0 12.9 8.0 0.00 0.00 0.00 1011.0
20260507121113 23 0 3.2 6.4 0.00 0.00 0.00 1011.0
20260507115113 21 0 1.6 3.2 0.00 0.00 0.00 1012.0
20260507114113 18 0 4.8 8.0 0.00 0.00 0.00 1012.0
20260507113113 17 0 3.2 11.3 0.00 0.00 0.00 1012.0
20260507112113 17 0 1.6 1.6 0.00 0.00 0.00 1012.0
20260507111113 17 0 4.8 9.7 0.00 0.00 0.00 1012.0
20260507110113 18 0 6.4 12.9 0.00 0.00 0.00 1012.0
20260507105113 18 0 4.8 9.7 0.00 0.00 0.00 1012.0
20260507104113 18 0 4.8 8.0 0.00 0.00 0.00 1012.0
20260507103113 18 0 6.4 11.3 0.00 0.00 0.00 1012.0
20260507102113 16 0 3.2 9.7 0.00 0.00 0.00 1012.0
20260507101113 17 0 3.2 6.4 0.00 0.00 0.00 1012.0
20260507100113 16 0 1.6 9.7 0.00 0.00 0.00 1012.0
20260507095113 15 0 6.4 8.0 0.00 0.00 0.00 1013.0
20260507094113 15 0 1.6 8.0 0.00 0.00 0.00 1013.0
20260507093113 13 0 4.8 4.8 0.00 0.00 0.00 1012.0
20260507092113 10 0 0.0 1.6 0.00 0.00 0.00 1012.0
20260507091113 10 0 0.0 6.4 0.00 0.00 0.00 1013.0
20260507090113 11 0 6.4 8.0 0.00 0.00 0.00 1013.0
20260507085113 13 0 3.2 8.0 0.00 0.00 0.00 1012.0
20260507084113 16 0 0.0 3.2 0.00 0.00 0.00 1012.0
20260507083113 19 0 3.2 8.0 0.00 0.00 0.00 1012.0
20260507082113 18 0 0.0 4.8 0.00 0.00 0.00 1012.0
20260507081113 15 0 4.8 3.2 0.00 0.00 0.00 1012.0
20260507080113 12 0 6.4 4.8 0.00 0.00 0.00 1012.0
20260507075113 10 0 1.6 4.8 0.00 0.00 0.00 1013.0
20260507074113 10 0 3.2 3.2 0.00 0.00 0.00 1012.0
20260507073113 10 0 8.0 4.8 0.00 0.00 0.00 1012.0
20260507072113 9 0 1.6 3.2 0.00 0.00 0.00 1013.0
20260507071113 8 0 4.8 4.8 0.00 0.00 0.00 1013.0
20260507070113 8 0 3.2 1.6 0.00 0.00 0.00 1013.0
20260507065113 7 0 0.0 1.6 0.00 0.00 0.00 1013.0
20260507064113 7 0 3.2 3.2 0.00 0.00 0.00 1013.0
20260507063113 7 0 4.8 4.8 0.00 0.00 0.00 1013.0
20260507062113 7 0 1.6 3.2 0.00 0.00 0.00 1012.0
20260507061113 7 0 0.0 3.2 0.00 0.00 0.00 1013.0
20260507060113 6 0 0.0 0.0 0.00 0.00 0.00 1013.0
20260507055113 6 0 0.0 0.0 0.00 0.00 0.00 1013.0
20260507054113 6 0 0.0 1.6 0.00 0.00 0.00 1013.0
20260507053113 5 0 0.0 1.6 0.00 0.00 0.00 1013.0
20260507052113 5 0 0.0 3.2 0.00 0.00 0.00 1013.0
20260507051113 5 0 0.0 1.6 0.00 0.00 0.00 1013.0
20260507050113 5 0 0.0 1.6 0.00 0.00 0.00 1013.0
20260507045113 5 0 0.0 0.0 0.00 0.00 0.00 1013.0
20260507044113 4 0 0.0 0.0 0.00 0.00 0.00 1013.0
20260507043113 4 0 0.0 1.6 0.00 0.00 0.00 1013.0
20260507042113 4 0 0.0 1.6 0.00 0.00 0.00 1013.0
20260507041114 4 0 0.0 1.6 0.00 0.00 0.00 1013.0
20260507040113 4 0 0.0 0.0 0.00 0.00 0.00 1013.0
20260507035113 4 0 0.0 1.6 0.00 0.00 0.00 1013.0
20260507034113 3 0 0.0 0.0 0.00 0.00 0.00 1013.0
20260507033113 3 0 0.0 3.2 0.00 0.00 0.00 1013.0
20260507032113 3 0 3.2 1.6 0.00 0.00 0.00 1013.0
20260507031113 3 0 0.0 3.2 0.00 0.00 0.00 1013.0
20260507030113 4 0 0.0 1.6 0.00 0.00 0.00 1013.0
20260507025113 3 0 0.0 3.2 0.00 0.00 0.00 1013.0